Time,TemperatureF,DewpointF,PressureIn,WindDirection,WindDirectionDegrees,WindSpeedMPH,WindSpeedGustMPH,Humidity,HourlyPrecipIn,Conditions,Clouds,dailyrainin,SoftwareType,DateUTC
2013-08-01 00:01:00,78.2,39.5,29.79,North,5,5.0,10.0,25,0.00,,,0.00,WUHU216DAVISVP2,2013-08-01 07:01:00,
2013-08-01 00:06:00,78.4,39.6,29.79,NW,321,1.0,10.0,25,0.00,,,0.00,WUHU216DAVISVP2,2013-08-01 07:06:00,
2013-08-01 00:11:00,78.1,39.3,29.79,West,273,4.0,10.0,25,0.00,,,0.00,WUHU216DAVISVP2,2013-08-01 07:11:00,
2013-08-01 00:17:00,78.1,38.3,29.79,North,355,6.0,10.0,24,0.00,,,0.00,WUHU216DAVISVP2,2013-08-01 07:17:00,
2013-08-01 00:22:00,78.5,37.6,29.79,NNE,19,2.0,10.0,23,0.00,,,0.00,WUHU216DAVISVP2,2013-08-01 07:22:00,
2013-08-01 00:27:00,78.5,37.6,29.79,NW,319,1.0,10.0,23,0.00,,,0.00,WUHU216DAVISVP2,2013-08-01 07:27:00,
2013-08-01 00:32:00,78.6,37.6,29.79,North,350,4.0,10.0,23,0.00,,,0.00,WUHU216DAVISVP2,2013-08-01 07:32:00,
2013-08-01 00:37:00,78.8,36.7,29.79,West,259,1.0,8.0,22,0.00,,,0.00,WUHU216DAVISVP2,2013-08-01 07:37:00,
2013-08-01 00:42:00,78.7,36.6,29.79,West,275,5.0,8.0,22,0.00,,,0.00,WUHU216DAVISVP2,2013-08-01 07:42:00,
2013-08-01 00:47:00,78.5,36.4,29.79,West,277,2.0,8.0,22,0.00,,,0.00,WUHU216DAVISVP2,2013-08-01 07:47:00,
2013-08-01 00:52:00,77.8,37.0,29.78,NNW,329,4.0,8.0,23,0.00,,,0.00,WUHU216DAVISVP2,2013-08-01 07:52:00,
2013-08-01 00:57:00,77.7,36.9,29.79,SE,146,9.0,10.0,23,0.00,,,0.00,WUHU216DAVISVP2,2013-08-01 07:57:00,
2013-08-01 01:02:00,78.0,36.0,29.78,WSW,247,4.0,11.0,22,0.00,,,0.00,WUHU216DAVISVP2,2013-08-01 08:02:00,
2013-08-01 01:07:00,78.0,36.0,29.79,SSW,209,2.0,11.0,22,0.00,,,0.00,WUHU216DAVISVP2,2013-08-01 08:07:00,
2013-08-01 01:13:00,78.0,37.1,29.78,SSW,209,7.0,11.0,23,0.00,,,0.00,WUHU216DAVISVP2,2013-08-01 08:13:00,
2013-08-01 01:18:00,77.8,37.0,29.78,NNE,24,4.0,11.0,23,0.00,,,0.00,WUHU216DAVISVP2,2013-08-01 08:18:00,
2013-08-01 01:23:00,77.6,36.8,29.78,NE,40,2.0,11.0,23,0.00,,,0.00,WUHU216DAVISVP2,2013-08-01 08:23:00,
2013-08-01 01:28:00,77.5,36.8,29.78,ENE,77,3.0,10.0,23,0.00,,,0.00,WUHU216DAVISVP2,2013-08-01 08:28:00,
2013-08-01 01:34:00,77.3,37.7,29.78,ENE,77,2.0,10.0,24,0.00,,,0.00,WUHU216DAVISVP2,2013-08-01 08:34:00,
2013-08-01 01:39:00,76.7,37.2,29.78,NE,39,2.0,10.0,24,0.00,,,0.00,WUHU216DAVISVP2,2013-08-01 08:39:00,
2013-08-01 01:44:00,76.5,36.9,29.78,NE,42,2.0,10.0,24,0.00,,,0.00,WUHU216DAVISVP2,2013-08-01 08:44:00,
2013-08-01 01:49:00,76.4,36.8,29.78,East,100,5.0,7.0,24,0.00,,,0.00,WUHU216DAVISVP2,2013-08-01 08:49:00,
2013-08-01 01:54:00,76.7,38.1,29.78,South,182,1.0,7.0,25,0.00,,,0.00,WUHU216DAVISVP2,2013-08-01 08:54:00,
2013-08-01 02:00:00,76.9,38.3,29.78,WSW,246,9.0,12.0,25,0.00,,,0.00,WUHU216DAVISVP2,2013-08-01 09:00:00,
2013-08-01 02:05:00,77.0,39.4,29.77,WSW,243,16.0,20.0,26,0.00,,,0.00,WUHU216DAVISVP2,2013-08-01 09:05:00,
2013-08-01 02:10:00,76.9,40.2,29.77,WSW,246,14.0,20.0,27,0.00,,,0.00,WUHU216DAVISVP2,2013-08-01 09:10:00,
2013-08-01 02:15:00,76.7,40.1,29.77,SW,218,8.0,20.0,27,0.00,,,0.00,WUHU216DAVISVP2,2013-08-01 09:15:00,
2013-08-01 02:20:00,76.7,39.1,29.77,WSW,254,14.0,20.0,26,0.00,,,0.00,WUHU216DAVISVP2,2013-08-01 09:20:00,
2013-08-01 02:26:00,76.6,39.0,29.78,West,261,8.0,18.0,26,0.00,,,0.00,WUHU216DAVISVP2,2013-08-01 09:26:00,
2013-08-01 02:31:00,76.4,38.8,29.77,SW,232,10.0,17.0,26,0.00,,,0.00,WUHU216DAVISVP2,2013-08-01 09:31:00,
2013-08-01 02:36:00,76.2,38.7,29.78,WSW,249,0.0,16.0,26,0.00,,,0.00,WUHU216DAVISVP2,2013-08-01 09:36:00,
2013-08-01 02:42:00,76.0,39.5,29.78,West,263,5.0,16.0,27,0.00,,,0.00,WUHU216DAVISVP2,2013-08-01 09:42:00,
2013-08-01 02:47:00,76.0,38.5,29.77,WSW,240,12.0,16.0,26,0.00,,,0.00,WUHU216DAVISVP2,2013-08-01 09:47:00,
2013-08-01 02:52:00,76.0,38.6,29.77,SW,235,12.0,16.0,26,0.00,,,0.00,WUHU216DAVISVP2,2013-08-01 09:52:00,
2013-08-01 02:58:00,75.9,37.5,29.78,WSW,253,5.0,16.0,25,0.00,,,0.00,WUHU216DAVISVP2,2013-08-01 09:58:00,
2013-08-01 03:03:00,75.8,36.4,29.78,NW,306,2.0,16.0,24,0.00,,,0.00,WUHU216DAVISVP2,2013-08-01 10:03:00,
2013-08-01 03:08:00,75.7,38.4,29.77,WSW,257,9.0,16.0,26,0.00,,,0.00,WUHU216DAVISVP2,2013-08-01 10:08:00,
2013-08-01 03:13:00,75.8,37.4,29.77,West,264,8.0,16.0,25,0.00,,,0.00,WUHU216DAVISVP2,2013-08-01 10:13:00,
2013-08-01 03:18:00,76.1,36.6,29.77,SW,224,10.0,16.0,24,0.00,,,0.00,WUHU216DAVISVP2,2013-08-01 10:18:00,
2013-08-01 03:23:00,75.9,38.4,29.77,SW,232,8.0,16.0,26,0.00,,,0.00,WUHU216DAVISVP2,2013-08-01 10:23:00,
2013-08-01 03:29:00,75.5,38.1,29.77,WSW,244,4.0,15.0,26,0.00,,,0.00,WUHU216DAVISVP2,2013-08-01 10:29:00,
2013-08-01 03:34:00,75.4,38.9,29.77,West,263,9.0,16.0,27,0.00,,,0.00,WUHU216DAVISVP2,2013-08-01 10:34:00,
2013-08-01 03:40:00,75.2,39.7,29.77,SW,218,12.0,17.0,28,0.00,,,0.00,WUHU216DAVISVP2,2013-08-01 10:40:00,
2013-08-01 03:45:00,75.2,39.7,29.77,SW,231,10.0,21.0,28,0.00,,,0.00,WUHU216DAVISVP2,2013-08-01 10:45:00,
2013-08-01 03:50:00,74.8,41.1,29.77,SW,234,6.0,21.0,30,0.00,,,0.00,WUHU216DAVISVP2,2013-08-01 10:50:00,
2013-08-01 03:55:00,74.3,41.5,29.77,WSW,240,7.0,21.0,31,0.00,,,0.00,WUHU216DAVISVP2,2013-08-01 10:55:00,
2013-08-01 04:01:00,74.2,40.6,29.77,SW,219,9.0,21.0,30,0.00,,,0.00,WUHU216DAVISVP2,2013-08-01 11:01:00,
2013-08-01 04:06:00,74.2,40.6,29.77,WSW,241,13.0,20.0,30,0.00,,,0.00,WUHU216DAVISVP2,2013-08-01 11:06:00,
2013-08-01 04:11:00,74.1,40.5,29.77,SW,215,9.0,18.0,30,0.00,,,0.00,WUHU216DAVISVP2,2013-08-01 11:11:00,
2013-08-01 04:17:00,73.9,42.0,29.76,SSW,212,9.0,18.0,32,0.00,,,0.00,WUHU216DAVISVP2,2013-08-01 11:17:00,
2013-08-01 04:22:00,73.6,42.5,29.77,SW,225,4.0,18.0,33,0.00,,,0.00,WUHU216DAVISVP2,2013-08-01 11:22:00,
2013-08-01 04:27:00,73.4,41.6,29.77,North,5,5.0,18.0,32,0.00,,,0.00,WUHU216DAVISVP2,2013-08-01 11:27:00,
2013-08-01 04:32:00,73.1,41.3,29.77,NNE,26,7.0,18.0,32,0.00,,,0.00,WUHU216DAVISVP2,2013-08-01 11:32:00,
2013-08-01 04:37:00,72.8,41.0,29.76,North,360,5.0,15.0,32,0.00,,,0.00,WUHU216DAVISVP2,2013-08-01 11:37:00,
2013-08-01 04:43:00,72.8,42.0,29.76,West,265,3.0,10.0,33,0.00,,,0.00,WUHU216DAVISVP2,2013-08-01 11:43:00,
2013-08-01 04:48:00,72.7,41.1,29.76,NNW,347,5.0,10.0,32,0.00,,,0.00,WUHU216DAVISVP2,2013-08-01 11:48:00,
2013-08-01 04:53:00,72.7,41.1,29.76,NW,325,1.0,10.0,32,0.00,,,0.00,WUHU216DAVISVP2,2013-08-01 11:53:00,
2013-08-01 04:59:00,72.6,41.0,29.76,SE,134,2.0,10.0,32,0.00,,,0.00,WUHU216DAVISVP2,2013-08-01 11:59:00,
2013-08-01 05:04:00,72.6,42.4,29.76,SSW,201,3.0,12.0,34,0.00,,,0.00,WUHU216DAVISVP2,2013-08-01 12:04:00,
2013-08-01 05:09:00,72.6,41.7,29.76,NNE,22,4.0,12.0,33,0.00,,,0.00,WUHU216DAVISVP2,2013-08-01 12:09:00,
2013-08-01 05:15:00,72.5,41.6,29.76,NE,44,1.0,12.0,33,0.00,,,0.00,WUHU216DAVISVP2,2013-08-01 12:15:00,
2013-08-01 05:20:00,72.3,42.9,29.77,SW,225,8.0,9.0,35,0.00,,,0.00,WUHU216DAVISVP2,2013-08-01 12:20:00,
2013-08-01 05:25:00,72.2,42.9,29.77,SW,232,0.0,9.0,35,0.00,,,0.00,WUHU216DAVISVP2,2013-08-01 12:25:00,
2013-08-01 05:32:00,71.9,42.6,29.77,SW,232,0.0,9.0,35,0.00,,,0.00,WUHU216DAVISVP2,2013-08-01 12:32:00,
2013-08-01 05:37:00,71.7,43.2,29.77,WNW,302,0.0,9.0,36,0.00,,,0.00,WUHU216DAVISVP2,2013-08-01 12:37:00,
2013-08-01 05:42:00,71.9,43.3,29.77,WSW,248,1.0,10.0,36,0.00,,,0.00,WUHU216DAVISVP2,2013-08-01 12:42:00,
2013-08-01 05:47:00,71.9,43.3,29.77,North,11,0.0,10.0,36,0.00,,,0.00,WUHU216DAVISVP2,2013-08-01 12:47:00,
2013-08-01 05:52:00,71.7,43.9,29.77,North,11,0.0,10.0,37,0.00,,,0.00,WUHU216DAVISVP2,2013-08-01 12:52:00,
2013-08-01 05:58:00,71.7,43.2,29.78,North,11,0.0,10.0,36,0.00,,,0.00,WUHU216DAVISVP2,2013-08-01 12:58:00,
2013-08-01 06:03:00,71.9,43.3,29.78,SSW,208,2.0,6.0,36,0.00,,,0.00,WUHU216DAVISVP2,2013-08-01 13:03:00,
2013-08-01 06:08:00,72.1,44.2,29.78,South,176,2.0,10.0,37,0.00,,,0.00,WUHU216DAVISVP2,2013-08-01 13:08:00,
2013-08-01 06:13:00,72.0,44.1,29.78,South,176,0.0,10.0,37,0.00,,,0.00,WUHU216DAVISVP2,2013-08-01 13:13:00,
2013-08-01 06:18:00,71.9,44.1,29.78,South,176,0.0,10.0,37,0.00,,,0.00,WUHU216DAVISVP2,2013-08-01 13:18:00,
2013-08-01 06:23:00,71.5,44.4,29.78,NE,45,7.0,10.0,38,0.00,,,0.00,WUHU216DAVISVP2,2013-08-01 13:23:00,
2013-08-01 06:29:00,71.1,44.1,29.78,NNE,28,5.0,8.0,38,0.00,,,0.00,WUHU216DAVISVP2,2013-08-01 13:29:00,
2013-08-01 06:34:00,71.0,44.8,29.78,NW,312,3.0,8.0,39,0.00,,,0.00,WUHU216DAVISVP2,2013-08-01 13:34:00,
2013-08-01 06:39:00,71.1,44.9,29.78,NNW,338,4.0,8.0,39,0.00,,,0.00,WUHU216DAVISVP2,2013-08-01 13:39:00,
2013-08-01 06:44:00,71.4,44.5,29.79,WSW,245,0.0,7.0,38,0.00,,,0.00,WUHU216DAVISVP2,2013-08-01 13:44:00,
2013-08-01 06:50:00,71.9,44.1,29.78,SSE,166,4.0,8.0,37,0.00,,,0.00,WUHU216DAVISVP2,2013-08-01 13:50:00,
2013-08-01 06:55:00,72.3,44.4,29.78,SSE,159,3.0,8.0,37,0.00,,,0.00,WUHU216DAVISVP2,2013-08-01 13:55:00,
2013-08-01 07:00:00,72.4,44.5,29.79,SSE,159,4.0,8.0,37,0.00,,,0.00,WUHU216DAVISVP2,2013-08-01 14:00:00,
2013-08-01 07:06:00,72.6,44.0,29.78,East,84,5.0,8.0,36,0.00,,,0.00,WUHU216DAVISVP2,2013-08-01 14:06:00,
2013-08-01 07:11:00,73.2,43.7,29.78,East,80,5.0,11.0,35,0.00,,,0.00,WUHU216DAVISVP2,2013-08-01 14:11:00,
2013-08-01 07:16:00,73.7,43.4,29.79,ESE,118,2.0,11.0,34,0.00,,,0.00,WUHU216DAVISVP2,2013-08-01 14:16:00,
2013-08-01 07:21:00,73.9,43.6,29.78,SE,126,2.0,11.0,34,0.00,,,0.00,WUHU216DAVISVP2,2013-08-01 14:21:00,
2013-08-01 07:27:00,74.3,43.2,29.79,SSW,211,2.0,9.0,33,0.00,,,0.00,WUHU216DAVISVP2,2013-08-01 14:27:00,
2013-08-01 07:32:00,74.8,43.6,29.79,ENE,64,4.0,8.0,33,0.00,,,0.00,WUHU216DAVISVP2,2013-08-01 14:32:00,
2013-08-01 07:38:00,75.3,43.2,29.79,SSE,157,2.0,8.0,32,0.00,,,0.00,WUHU216DAVISVP2,2013-08-01 14:38:00,
2013-08-01 07:43:00,75.9,42.9,29.78,East,82,5.0,7.0,31,0.00,,,0.00,WUHU216DAVISVP2,2013-08-01 14:43:00,
2013-08-01 07:48:00,76.1,43.1,29.79,ESE,112,3.0,7.0,31,0.00,,,0.00,WUHU216DAVISVP2,2013-08-01 14:48:00,
2013-08-01 07:54:00,76.3,42.4,29.79,SE,146,0.0,8.0,30,0.00,,,0.00,WUHU216DAVISVP2,2013-08-01 14:54:00,
2013-08-01 07:59:00,76.4,42.5,29.79,SSE,160,2.0,9.0,30,0.00,,,0.00,WUHU216DAVISVP2,2013-08-01 14:59:00,
2013-08-01 08:05:00,76.7,42.8,29.79,East,91,6.0,9.0,30,0.00,,,0.00,WUHU216DAVISVP2,2013-08-01 15:05:00,
2013-08-01 08:10:00,77.2,42.3,29.79,East,92,6.0,9.0,29,0.00,,,0.00,WUHU216DAVISVP2,2013-08-01 15:10:00,
2013-08-01 08:15:00,77.4,42.5,29.79,SE,136,1.0,10.0,29,0.00,,,0.00,WUHU216DAVISVP2,2013-08-01 15:15:00,
2013-08-01 08:20:00,77.7,42.8,29.79,SE,140,3.0,10.0,29,0.00,,,0.00,WUHU216DAVISVP2,2013-08-01 15:20:00,
2013-08-01 08:25:00,78.0,43.0,29.79,SSE,150,7.0,11.0,29,0.00,,,0.00,WUHU216DAVISVP2,2013-08-01 15:25:00,
2013-08-01 08:30:00,77.9,42.0,29.79,SSW,206,3.0,11.0,28,0.00,,,0.00,WUHU216DAVISVP2,2013-08-01 15:30:00,
2013-08-01 08:35:00,78.2,42.3,29.79,SE,143,5.0,11.0,28,0.00,,,0.00,WUHU216DAVISVP2,2013-08-01 15:35:00,
2013-08-01 08:41:00,78.7,42.7,29.79,South,172,4.0,11.0,28,0.00,,,0.00,WUHU216DAVISVP2,2013-08-01 15:41:00,
2013-08-01 08:46:00,79.3,42.3,29.79,SSW,197,4.0,10.0,27,0.00,,,0.00,WUHU216DAVISVP2,2013-08-01 15:46:00,
2013-08-01 08:52:00,79.7,41.7,29.78,SSW,196,9.0,11.0,26,0.00,,,0.00,WUHU216DAVISVP2,2013-08-01 15:52:00,
2013-08-01 08:57:00,79.9,41.8,29.79,SSE,167,7.0,12.0,26,0.00,,,0.00,WUHU216DAVISVP2,2013-08-01 15:57:00,
2013-08-01 09:03:00,80.2,42.1,29.79,SSW,208,6.0,12.0,26,0.00,,,0.00,WUHU216DAVISVP2,2013-08-01 16:03:00,
2013-08-01 09:08:00,80.8,41.6,29.78,South,180,9.0,12.0,25,0.00,,,0.00,WUHU216DAVISVP2,2013-08-01 16:08:00,
2013-08-01 09:13:00,81.1,41.9,29.78,SSE,162,9.0,11.0,25,0.00,,,0.00,WUHU216DAVISVP2,2013-08-01 16:13:00,
2013-08-01 09:19:00,81.3,42.0,29.78,SSE,164,9.0,12.0,25,0.00,,,0.00,WUHU216DAVISVP2,2013-08-01 16:19:00,
2013-08-01 09:24:00,81.6,41.2,29.78,South,179,10.0,12.0,24,0.00,,,0.00,WUHU216DAVISVP2,2013-08-01 16:24:00,
2013-08-01 09:29:00,81.9,41.6,29.78,South,175,7.0,12.0,24,0.00,,,0.00,WUHU216DAVISVP2,2013-08-01 16:29:00,
2013-08-01 09:35:00,82.5,41.0,29.78,SSW,196,7.0,12.0,23,0.00,,,0.00,WUHU216DAVISVP2,2013-08-01 16:35:00,
2013-08-01 09:40:00,82.9,41.3,29.78,SSW,205,5.0,12.0,23,0.00,,,0.00,WUHU216DAVISVP2,2013-08-01 16:40:00,
2013-08-01 09:46:00,83.3,40.4,29.77,South,174,11.0,13.0,22,0.00,,,0.00,WUHU216DAVISVP2,2013-08-01 16:46:00,
2013-08-01 09:51:00,83.3,40.4,29.77,SW,216,13.0,18.0,22,0.00,,,0.00,WUHU216DAVISVP2,2013-08-01 16:51:00,
2013-08-01 09:56:00,83.5,40.6,29.77,SW,219,10.0,18.0,22,0.00,,,0.00,WUHU216DAVISVP2,2013-08-01 16:56:00,
2013-08-01 10:01:00,84.0,41.0,29.77,South,177,8.0,18.0,22,0.00,,,0.00,WUHU216DAVISVP2,2013-08-01 17:01:00,
2013-08-01 10:09:00,85.1,38.2,29.77,West,261,6.0,15.0,19,0.00,,,0.00,WUHU216DAVISVP2,2013-08-01 17:09:00,
2013-08-01 10:18:00,85.9,38.9,29.77,SW,227,12.0,17.0,19,0.00,,,0.00,WUHU216DAVISVP2,2013-08-01 17:18:00,
2013-08-01 10:23:00,85.6,39.9,29.77,SSW,200,10.0,20.0,20,0.00,,,0.00,WUHU216DAVISVP2,2013-08-01 17:23:00,
2013-08-01 10:29:00,85.8,40.1,29.76,SW,217,10.0,20.0,20,0.00,,,0.00,WUHU216DAVISVP2,2013-08-01 17:29:00,
2013-08-01 10:34:00,85.7,40.0,29.76,SW,226,15.0,22.0,20,0.00,,,0.00,WUHU216DAVISVP2,2013-08-01 17:34:00,
2013-08-01 10:39:00,85.6,41.2,29.76,SSW,198,13.0,22.0,21,0.00,,,0.00,WUHU216DAVISVP2,2013-08-01 17:39:00,
2013-08-01 10:45:00,85.1,40.7,29.76,South,186,20.0,22.0,21,0.00,,,0.00,WUHU216DAVISVP2,2013-08-01 17:45:00,
2013-08-01 10:51:00,85.6,41.2,29.76,South,181,15.0,21.0,21,0.00,,,0.00,WUHU216DAVISVP2,2013-08-01 17:51:00,
2013-08-01 10:56:00,86.3,40.5,29.76,SW,234,10.0,21.0,20,0.00,,,0.00,WUHU216DAVISVP2,2013-08-01 17:56:00,
2013-08-01 11:02:00,85.9,40.2,29.76,South,188,19.0,22.0,20,0.00,,,0.00,WUHU216DAVISVP2,2013-08-01 18:02:00,
2013-08-01 11:07:00,86.3,40.5,29.76,SSW,207,18.0,22.0,20,0.00,,,0.00,WUHU216DAVISVP2,2013-08-01 18:07:00,
2013-08-01 11:12:00,86.6,39.4,29.76,SSW,208,12.0,22.0,19,0.00,,,0.00,WUHU216DAVISVP2,2013-08-01 18:12:00,
2013-08-01 11:17:00,86.0,40.2,29.76,SSW,206,11.0,22.0,20,0.00,,,0.00,WUHU216DAVISVP2,2013-08-01 18:17:00,
2013-08-01 11:22:00,86.2,40.4,29.75,SSW,194,17.0,22.0,20,0.00,,,0.00,WUHU216DAVISVP2,2013-08-01 18:22:00,
2013-08-01 11:27:00,86.7,39.5,29.75,SW,224,17.0,22.0,19,0.00,,,0.00,WUHU216DAVISVP2,2013-08-01 18:27:00,
2013-08-01 11:33:00,87.1,39.8,29.75,SW,218,18.0,22.0,19,0.00,,,0.00,WUHU216DAVISVP2,2013-08-01 18:33:00,
2013-08-01 11:38:00,87.1,38.4,29.75,SSW,211,9.0,22.0,18,0.00,,,0.00,WUHU216DAVISVP2,2013-08-01 18:38:00,
2013-08-01 11:44:00,87.8,39.0,29.75,SW,221,15.0,22.0,18,0.00,,,0.00,WUHU216DAVISVP2,2013-08-01 18:44:00,
2013-08-01 11:49:00,87.9,39.1,29.75,SW,219,18.0,22.0,18,0.00,,,0.00,WUHU216DAVISVP2,2013-08-01 18:49:00,
2013-08-01 11:54:00,88.1,39.3,29.74,SSW,202,20.0,22.0,18,0.00,,,0.00,WUHU216DAVISVP2,2013-08-01 18:54:00,
2013-08-01 12:01:00,88.1,39.3,29.74,SW,223,14.0,23.0,18,0.00,,,0.00,WUHU216DAVISVP2,2013-08-01 19:01:00,
2013-08-01 12:11:00,88.6,38.2,29.74,SSW,194,7.0,23.0,17,0.00,,,0.00,WUHU216DAVISVP2,2013-08-01 19:11:00,
2013-08-01 12:16:00,88.7,38.3,29.74,SW,218,14.0,23.0,17,0.00,,,0.00,WUHU216DAVISVP2,2013-08-01 19:16:00,
2013-08-01 12:21:00,88.8,38.4,29.74,SSW,192,21.0,23.0,17,0.00,,,0.00,WUHU216DAVISVP2,2013-08-01 19:21:00,
2013-08-01 12:27:00,88.8,38.4,29.74,South,172,16.0,23.0,17,0.00,,,0.00,WUHU216DAVISVP2,2013-08-01 19:27:00,
2013-08-01 12:32:00,88.6,38.2,29.74,SW,224,11.0,27.0,17,0.00,,,0.00,WUHU216DAVISVP2,2013-08-01 19:32:00,
2013-08-01 12:37:00,89.4,37.3,29.74,SW,215,16.0,27.0,16,0.00,,,0.00,WUHU216DAVISVP2,2013-08-01 19:37:00,
2013-08-01 12:42:00,89.6,37.4,29.73,SW,224,18.0,27.0,16,0.00,,,0.00,WUHU216DAVISVP2,2013-08-01 19:42:00,
2013-08-01 12:48:00,89.7,37.5,29.73,WSW,240,11.0,27.0,16,0.00,,,0.00,WUHU216DAVISVP2,2013-08-01 19:48:00,
2013-08-01 12:54:00,89.6,37.4,29.73,SW,227,15.0,24.0,16,0.00,,,0.00,WUHU216DAVISVP2,2013-08-01 19:54:00,
2013-08-01 12:59:00,89.9,36.0,29.73,WSW,238,21.0,24.0,15,0.00,,,0.00,WUHU216DAVISVP2,2013-08-01 19:59:00,
2013-08-01 13:04:00,90.0,36.1,29.73,SW,217,17.0,25.0,15,0.00,,,0.00,WUHU216DAVISVP2,2013-08-01 20:04:00,
2013-08-01 13:09:00,89.9,36.0,29.73,SSW,202,15.0,25.0,15,0.00,,,0.00,WUHU216DAVISVP2,2013-08-01 20:09:00,
2013-08-01 13:14:00,89.9,36.1,29.73,SW,221,21.0,25.0,15,0.00,,,0.00,WUHU216DAVISVP2,2013-08-01 20:14:00,
2013-08-01 13:19:00,90.1,36.2,29.73,SW,218,16.0,25.0,15,0.00,,,0.00,WUHU216DAVISVP2,2013-08-01 20:19:00,
2013-08-01 13:25:00,90.6,36.6,29.73,SW,227,17.0,24.0,15,0.00,,,0.00,WUHU216DAVISVP2,2013-08-01 20:25:00,
2013-08-01 13:30:00,90.7,34.9,29.72,SSW,206,22.0,26.0,14,0.00,,,0.00,WUHU216DAVISVP2,2013-08-01 20:30:00,
2013-08-01 13:35:00,90.7,34.9,29.72,SSW,201,16.0,26.0,14,0.00,,,0.00,WUHU216DAVISVP2,2013-08-01 20:35:00,
2013-08-01 13:40:00,90.2,36.3,29.72,WSW,245,14.0,28.0,15,0.00,,,0.00,WUHU216DAVISVP2,2013-08-01 20:40:00,
2013-08-01 13:45:00,90.6,34.8,29.72,SW,229,19.0,28.0,14,0.00,,,0.00,WUHU216DAVISVP2,2013-08-01 20:45:00,
2013-08-01 13:50:00,90.2,36.3,29.72,SW,219,21.0,28.0,15,0.00,,,0.00,WUHU216DAVISVP2,2013-08-01 20:50:00,
2013-08-01 13:55:00,89.9,36.0,29.72,SW,227,16.0,26.0,15,0.00,,,0.00,WUHU216DAVISVP2,2013-08-01 20:55:00,
2013-08-01 14:00:00,89.7,37.5,29.72,SSW,198,17.0,27.0,16,0.00,,,0.00,WUHU216DAVISVP2,2013-08-01 21:00:00,
2013-08-01 14:06:00,90.4,38.1,29.72,SW,229,15.0,27.0,16,0.00,,,0.00,WUHU216DAVISVP2,2013-08-01 21:06:00,
2013-08-01 14:11:00,90.6,38.2,29.72,SW,227,13.0,27.0,16,0.00,,,0.00,WUHU216DAVISVP2,2013-08-01 21:11:00,
2013-08-01 14:16:00,89.5,38.9,29.72,SW,225,19.0,30.0,17,0.00,,,0.00,WUHU216DAVISVP2,2013-08-01 21:16:00,
2013-08-01 14:21:00,89.3,38.8,29.72,SW,229,22.0,30.0,17,0.00,,,0.00,WUHU216DAVISVP2,2013-08-01 21:21:00,
2013-08-01 14:27:00,89.8,39.2,29.71,SW,236,20.0,30.0,17,0.00,,,0.00,WUHU216DAVISVP2,2013-08-01 21:27:00,
2013-08-01 14:32:00,89.9,37.7,29.71,SW,214,21.0,30.0,16,0.00,,,0.00,WUHU216DAVISVP2,2013-08-01 21:32:00,
2013-08-01 14:37:00,89.4,37.3,29.71,SW,234,21.0,30.0,16,0.00,,,0.00,WUHU216DAVISVP2,2013-08-01 21:37:00,
2013-08-01 14:42:00,89.7,37.5,29.70,SW,232,16.0,30.0,16,0.00,,,0.00,WUHU216DAVISVP2,2013-08-01 21:42:00,
2013-08-01 14:47:00,90.1,37.8,29.70,SSW,206,24.0,30.0,16,0.00,,,0.00,WUHU216DAVISVP2,2013-08-01 21:47:00,
2013-08-01 14:53:00,90.1,36.2,29.70,SSW,198,20.0,27.0,15,0.00,,,0.00,WUHU216DAVISVP2,2013-08-01 21:53:00,
2013-08-01 14:58:00,89.7,35.9,29.70,SSW,202,20.0,28.0,15,0.00,,,0.00,WUHU216DAVISVP2,2013-08-01 21:58:00,
2013-08-01 15:03:00,89.5,35.7,29.70,SW,219,26.0,30.0,15,0.00,,,0.00,WUHU216DAVISVP2,2013-08-01 22:03:00,
2013-08-01 15:08:00,89.5,34.0,29.70,SSW,205,26.0,30.0,14,0.00,,,0.00,WUHU216DAVISVP2,2013-08-01 22:08:00,
2013-08-01 15:13:00,89.3,33.8,29.70,South,190,15.0,30.0,14,0.00,,,0.00,WUHU216DAVISVP2,2013-08-01 22:13:00,
2013-08-01 15:18:00,89.7,34.1,29.70,SSW,213,16.0,30.0,14,0.00,,,0.00,WUHU216DAVISVP2,2013-08-01 22:18:00,
2013-08-01 15:23:00,89.4,33.9,29.69,SW,219,23.0,28.0,14,0.00,,,0.00,WUHU216DAVISVP2,2013-08-01 22:23:00,
2013-08-01 15:28:00,89.6,34.0,29.69,SW,217,13.0,28.0,14,0.00,,,0.00,WUHU216DAVISVP2,2013-08-01 22:28:00,
2013-08-01 15:33:00,89.5,32.0,29.69,SSW,210,20.0,30.0,13,0.00,,,0.00,WUHU216DAVISVP2,2013-08-01 22:33:00,
2013-08-01 15:38:00,90.1,32.5,29.69,SW,214,18.0,30.0,13,0.00,,,0.00,WUHU216DAVISVP2,2013-08-01 22:38:00,
2013-08-01 15:43:00,89.7,32.2,29.70,SSW,201,16.0,29.0,13,0.00,,,0.00,WUHU216DAVISVP2,2013-08-01 22:43:00,
2013-08-01 15:48:00,89.7,32.2,29.69,SSW,207,20.0,29.0,13,0.00,,,0.00,WUHU216DAVISVP2,2013-08-01 22:48:00,
2013-08-01 15:53:00,89.6,32.1,29.69,SSW,207,15.0,29.0,13,0.00,,,0.00,WUHU216DAVISVP2,2013-08-01 22:53:00,
2013-08-01 15:59:00,90.1,32.5,29.69,SSW,203,28.0,29.0,13,0.00,,,0.00,WUHU216DAVISVP2,2013-08-01 22:59:00,
2013-08-01 16:04:00,89.4,32.0,29.69,SW,222,21.0,32.0,13,0.00,,,0.00,WUHU216DAVISVP2,2013-08-01 23:04:00,
2013-08-01 16:09:00,89.4,32.0,29.69,SW,215,20.0,32.0,13,0.00,,,0.00,WUHU216DAVISVP2,2013-08-01 23:09:00,
2013-08-01 16:14:00,88.8,31.5,29.68,SSW,199,15.0,32.0,13,0.00,,,0.00,WUHU216DAVISVP2,2013-08-01 23:14:00,
2013-08-01 16:19:00,89.7,32.2,29.68,SW,216,18.0,31.0,13,0.00,,,0.00,WUHU216DAVISVP2,2013-08-01 23:19:00,
2013-08-01 16:24:00,90.4,32.7,29.68,WSW,244,24.0,31.0,13,0.00,,,0.00,WUHU216DAVISVP2,2013-08-01 23:24:00,
2013-08-01 16:29:00,90.4,30.7,29.68,SW,232,20.0,31.0,12,0.00,,,0.00,WUHU216DAVISVP2,2013-08-01 23:29:00,
2013-08-01 16:34:00,90.2,30.5,29.68,SW,214,23.0,29.0,12,0.00,,,0.00,WUHU216DAVISVP2,2013-08-01 23:34:00,
2013-08-01 16:39:00,90.0,30.4,29.67,WSW,252,12.0,32.0,12,0.00,,,0.00,WUHU216DAVISVP2,2013-08-01 23:39:00,
2013-08-01 16:44:00,89.3,29.8,29.68,SW,221,20.0,32.0,12,0.00,,,0.00,WUHU216DAVISVP2,2013-08-01 23:44:00,
2013-08-01 16:49:00,88.9,29.5,29.67,WSW,251,20.0,32.0,12,0.00,,,0.00,WUHU216DAVISVP2,2013-08-01 23:49:00,
2013-08-01 16:54:00,88.7,29.4,29.67,SW,217,17.0,32.0,12,0.00,,,0.00,WUHU216DAVISVP2,2013-08-01 23:54:00,
2013-08-01 16:59:00,88.7,29.4,29.67,SW,214,12.0,32.0,12,0.00,,,0.00,WUHU216DAVISVP2,2013-08-01 23:59:00,
2013-08-01 17:04:00,88.6,29.3,29.67,WSW,242,25.0,31.0,12,0.00,,,0.00,WUHU216DAVISVP2,2013-08-02 00:04:00,
2013-08-01 17:10:00,88.3,29.1,29.67,SSW,213,11.0,31.0,12,0.00,,,0.00,WUHU216DAVISVP2,2013-08-02 00:10:00,
2013-08-01 17:15:00,88.1,28.9,29.67,SW,229,21.0,27.0,12,0.00,,,0.00,WUHU216DAVISVP2,2013-08-02 00:15:00,
2013-08-01 17:20:00,88.3,29.1,29.67,SW,236,17.0,27.0,12,0.00,,,0.00,WUHU216DAVISVP2,2013-08-02 00:20:00,
2013-08-01 17:25:00,88.3,29.1,29.67,SW,221,21.0,27.0,12,0.00,,,0.00,WUHU216DAVISVP2,2013-08-02 00:25:00,
2013-08-01 17:30:00,88.0,29.0,29.67,SW,229,21.0,29.0,12,0.00,,,0.00,WUHU216DAVISVP2,2013-08-02 00:30:00,
2013-08-01 17:35:00,87.8,28.9,29.67,WSW,240,16.0,29.0,12,0.00,,,0.00,WUHU216DAVISVP2,2013-08-02 00:35:00,
2013-08-01 17:40:00,87.1,28.3,29.67,West,273,16.0,31.0,12,0.00,,,0.00,WUHU216DAVISVP2,2013-08-02 00:40:00,
2013-08-01 17:45:00,87.0,30.2,29.67,WSW,252,19.0,32.0,13,0.00,,,0.00,WUHU216DAVISVP2,2013-08-02 00:45:00,
2013-08-01 17:50:00,86.5,29.8,29.67,SW,228,24.0,32.0,13,0.00,,,0.00,WUHU216DAVISVP2,2013-08-02 00:50:00,
2013-08-01 17:55:00,86.3,29.6,29.67,WSW,252,17.0,32.0,13,0.00,,,0.00,WUHU216DAVISVP2,2013-08-02 00:55:00,
2013-08-01 18:00:00,86.2,29.6,29.67,SW,232,20.0,32.0,13,0.00,,,0.00,WUHU216DAVISVP2,2013-08-02 01:00:00,
2013-08-01 18:05:00,86.0,29.4,29.67,SW,235,16.0,32.0,13,0.00,,,0.00,WUHU216DAVISVP2,2013-08-02 01:05:00,
2013-08-01 18:11:00,85.6,29.1,29.67,SW,233,15.0,30.0,13,0.00,,,0.00,WUHU216DAVISVP2,2013-08-02 01:11:00,
2013-08-01 18:16:00,85.7,29.2,29.67,WSW,249,21.0,31.0,13,0.00,,,0.00,WUHU216DAVISVP2,2013-08-02 01:16:00,
2013-08-01 18:21:00,85.4,30.8,29.67,WSW,257,18.0,31.0,14,0.00,,,0.00,WUHU216DAVISVP2,2013-08-02 01:21:00,
2013-08-01 18:26:00,85.2,30.6,29.67,WSW,252,11.0,31.0,14,0.00,,,0.00,WUHU216DAVISVP2,2013-08-02 01:26:00,
2013-08-01 18:31:00,84.8,30.3,29.67,WSW,239,22.0,31.0,14,0.00,,,0.00,WUHU216DAVISVP2,2013-08-02 01:31:00,
2013-08-01 18:36:00,84.9,30.4,29.67,WSW,244,21.0,30.0,14,0.00,,,0.00,WUHU216DAVISVP2,2013-08-02 01:36:00,
2013-08-01 18:42:00,84.6,30.1,29.68,WSW,244,14.0,30.0,14,0.00,,,0.00,WUHU216DAVISVP2,2013-08-02 01:42:00,
2013-08-01 18:47:00,84.2,31.5,29.68,WSW,245,17.0,32.0,15,0.00,,,0.00,WUHU216DAVISVP2,2013-08-02 01:47:00,
2013-08-01 18:52:00,84.0,31.4,29.68,WSW,246,15.0,32.0,15,0.00,,,0.00,WUHU216DAVISVP2,2013-08-02 01:52:00,
2013-08-01 18:57:00,83.6,31.0,29.68,SW,230,14.0,32.0,15,0.00,,,0.00,WUHU216DAVISVP2,2013-08-02 01:57:00,
2013-08-01 19:02:00,83.5,31.0,29.68,SW,218,10.0,32.0,15,0.00,,,0.00,WUHU216DAVISVP2,2013-08-02 02:02:00,
2013-08-01 19:07:00,83.2,32.3,29.68,WSW,238,15.0,29.0,16,0.00,,,0.00,WUHU216DAVISVP2,2013-08-02 02:07:00,
2013-08-01 19:12:00,83.0,32.1,29.68,WSW,244,17.0,29.0,16,0.00,,,0.00,WUHU216DAVISVP2,2013-08-02 02:12:00,
2013-08-01 19:17:00,82.7,31.9,29.68,WSW,251,18.0,29.0,16,0.00,,,0.00,WUHU216DAVISVP2,2013-08-02 02:17:00,
2013-08-01 19:23:00,82.4,31.7,29.69,SW,226,17.0,26.0,16,0.00,,,0.00,WUHU216DAVISVP2,2013-08-02 02:23:00,
2013-08-01 19:28:00,82.2,31.5,29.69,WSW,248,11.0,27.0,16,0.00,,,0.00,WUHU216DAVISVP2,2013-08-02 02:28:00,
2013-08-01 19:33:00,81.7,31.1,29.69,SW,226,10.0,27.0,16,0.00,,,0.00,WUHU216DAVISVP2,2013-08-02 02:33:00,
2013-08-01 19:38:00,81.2,30.7,29.68,WSW,245,9.0,27.0,16,0.00,,,0.00,WUHU216DAVISVP2,2013-08-02 02:38:00,
2013-08-01 19:43:00,80.9,32.0,29.68,SW,224,11.0,25.0,17,0.00,,,0.00,WUHU216DAVISVP2,2013-08-02 02:43:00,
2013-08-01 19:48:00,80.7,31.8,29.68,WSW,247,12.0,25.0,17,0.00,,,0.00,WUHU216DAVISVP2,2013-08-02 02:48:00,
2013-08-01 19:53:00,80.5,31.6,29.68,WSW,240,7.0,25.0,17,0.00,,,0.00,WUHU216DAVISVP2,2013-08-02 02:53:00,
2013-08-01 19:58:00,80.3,31.5,29.68,WSW,246,10.0,24.0,17,0.00,,,0.00,WUHU216DAVISVP2,2013-08-02 02:58:00,
2013-08-01 20:03:00,80.1,31.3,29.68,West,273,12.0,24.0,17,0.00,,,0.00,WUHU216DAVISVP2,2013-08-02 03:03:00,
2013-08-01 20:08:00,80.0,31.2,29.69,West,271,12.0,24.0,17,0.00,,,0.00,WUHU216DAVISVP2,2013-08-02 03:08:00,
2013-08-01 20:13:00,79.7,31.0,29.69,West,265,8.0,24.0,17,0.00,,,0.00,WUHU216DAVISVP2,2013-08-02 03:13:00,
2013-08-01 20:19:00,79.5,30.8,29.69,West,264,15.0,21.0,17,0.00,,,0.00,WUHU216DAVISVP2,2013-08-02 03:19:00,
2013-08-01 20:24:00,79.4,30.8,29.69,WSW,240,4.0,21.0,17,0.00,,,0.00,WUHU216DAVISVP2,2013-08-02 03:24:00,
2013-08-01 20:28:00,79.4,30.8,29.69,SW,230,22.0,27.0,17,0.00,,,0.00,WUHU216DAVISVP2,2013-08-02 03:28:00,
2013-08-01 20:34:00,79.4,30.8,29.69,WSW,251,12.0,27.0,17,0.00,,,0.00,WUHU216DAVISVP2,2013-08-02 03:34:00,
2013-08-01 20:39:00,79.3,30.7,29.69,West,279,18.0,27.0,17,0.00,,,0.00,WUHU216DAVISVP2,2013-08-02 03:39:00,
2013-08-01 20:44:00,79.3,30.7,29.70,SW,223,8.0,27.0,17,0.00,,,0.00,WUHU216DAVISVP2,2013-08-02 03:44:00,
2013-08-01 20:49:00,79.1,31.9,29.70,West,261,14.0,23.0,18,0.00,,,0.00,WUHU216DAVISVP2,2013-08-02 03:49:00,
2013-08-01 20:54:00,79.2,32.0,29.69,SW,229,17.0,24.0,18,0.00,,,0.00,WUHU216DAVISVP2,2013-08-02 03:54:00,
2013-08-01 21:00:00,79.2,32.0,29.70,SW,218,8.0,24.0,18,0.00,,,0.00,WUHU216DAVISVP2,2013-08-02 04:00:00,
2013-08-01 21:05:00,78.9,31.8,29.70,SW,236,18.0,24.0,18,0.00,,,0.00,WUHU216DAVISVP2,2013-08-02 04:05:00,
2013-08-01 21:10:00,78.7,31.6,29.70,WSW,252,11.0,24.0,18,0.00,,,0.00,WUHU216DAVISVP2,2013-08-02 04:10:00,
2013-08-01 21:15:00,78.5,31.4,29.70,WSW,238,12.0,22.0,18,0.00,,,0.00,WUHU216DAVISVP2,2013-08-02 04:15:00,
2013-08-01 21:20:00,78.3,31.3,29.70,WSW,257,16.0,22.0,18,0.00,,,0.00,WUHU216DAVISVP2,2013-08-02 04:20:00,
2013-08-01 21:25:00,78.1,31.1,29.71,WSW,244,15.0,22.0,18,0.00,,,0.00,WUHU216DAVISVP2,2013-08-02 04:25:00,
2013-08-01 21:30:00,78.0,32.4,29.71,WSW,246,10.0,22.0,19,0.00,,,0.00,WUHU216DAVISVP2,2013-08-02 04:30:00,
2013-08-01 21:35:00,77.9,32.3,29.70,West,271,20.0,25.0,19,0.00,,,0.00,WUHU216DAVISVP2,2013-08-02 04:35:00,
2013-08-01 21:40:00,78.2,32.5,29.70,WSW,252,10.0,25.0,19,0.00,,,0.00,WUHU216DAVISVP2,2013-08-02 04:40:00,
2013-08-01 21:45:00,78.3,32.6,29.70,WSW,248,18.0,25.0,19,0.00,,,0.00,WUHU216DAVISVP2,2013-08-02 04:45:00,
2013-08-01 21:50:00,78.3,32.6,29.70,West,262,13.0,25.0,19,0.00,,,0.00,WUHU216DAVISVP2,2013-08-02 04:50:00,
2013-08-01 21:55:00,78.2,33.8,29.70,WSW,244,17.0,25.0,20,0.00,,,0.00,WUHU216DAVISVP2,2013-08-02 04:55:00,
2013-08-01 22:00:00,78.2,35.0,29.70,WSW,248,16.0,25.0,21,0.00,,,0.00,WUHU216DAVISVP2,2013-08-02 05:00:00,
2013-08-01 22:05:00,78.2,33.8,29.70,West,264,10.0,24.0,20,0.00,,,0.00,WUHU216DAVISVP2,2013-08-02 05:05:00,
2013-08-01 22:10:00,78.4,35.2,29.70,SW,217,17.0,27.0,21,0.00,,,0.00,WUHU216DAVISVP2,2013-08-02 05:10:00,
2013-08-01 22:15:00,78.8,36.7,29.70,WSW,237,13.0,27.0,22,0.00,,,0.00,WUHU216DAVISVP2,2013-08-02 05:15:00,
2013-08-01 22:20:00,78.6,37.6,29.70,WSW,258,15.0,27.0,23,0.00,,,0.00,WUHU216DAVISVP2,2013-08-02 05:20:00,
2013-08-01 22:25:00,79.1,38.0,29.70,West,261,17.0,27.0,23,0.00,,,0.00,WUHU216DAVISVP2,2013-08-02 05:25:00,
2013-08-01 22:30:00,79.1,38.0,29.70,WSW,244,12.0,25.0,23,0.00,,,0.00,WUHU216DAVISVP2,2013-08-02 05:30:00,
2013-08-01 22:35:00,78.8,36.7,29.70,WSW,240,20.0,25.0,22,0.00,,,0.00,WUHU216DAVISVP2,2013-08-02 05:35:00,
2013-08-01 22:40:00,78.1,34.9,29.70,SW,234,10.0,25.0,21,0.00,,,0.00,WUHU216DAVISVP2,2013-08-02 05:40:00,
2013-08-01 22:45:00,77.5,35.6,29.70,West,261,16.0,25.0,22,0.00,,,0.00,WUHU216DAVISVP2,2013-08-02 05:45:00,
2013-08-01 22:50:00,77.4,36.7,29.70,WSW,238,11.0,24.0,23,0.00,,,0.00,WUHU216DAVISVP2,2013-08-02 05:50:00,
2013-08-01 22:55:00,77.9,37.1,29.70,SW,231,16.0,25.0,23,0.00,,,0.00,WUHU216DAVISVP2,2013-08-02 05:55:00,
2013-08-01 23:00:00,78.1,37.3,29.70,WSW,244,14.0,25.0,23,0.00,,,0.00,WUHU216DAVISVP2,2013-08-02 06:00:00,
2013-08-01 23:06:00,77.5,36.7,29.70,WSW,237,14.0,25.0,23,0.00,,,0.00,WUHU216DAVISVP2,2013-08-02 06:06:00,
2013-08-01 23:11:00,77.1,36.4,29.70,WSW,246,8.0,28.0,23,0.00,,,0.00,WUHU216DAVISVP2,2013-08-02 06:11:00,
2013-08-01 23:16:00,76.9,37.3,29.70,WSW,240,22.0,28.0,24,0.00,,,0.00,WUHU216DAVISVP2,2013-08-02 06:16:00,
2013-08-01 23:21:00,77.2,37.5,29.70,WSW,238,13.0,28.0,24,0.00,,,0.00,WUHU216DAVISVP2,2013-08-02 06:21:00,
2013-08-01 23:26:00,77.0,37.3,29.71,SW,232,21.0,28.0,24,0.00,,,0.00,WUHU216DAVISVP2,2013-08-02 06:26:00,
2013-08-01 23:31:00,77.1,37.4,29.71,WSW,250,15.0,27.0,24,0.00,,,0.00,WUHU216DAVISVP2,2013-08-02 06:31:00,
2013-08-01 23:36:00,77.1,37.4,29.71,SW,230,8.0,27.0,24,0.00,,,0.00,WUHU216DAVISVP2,2013-08-02 06:36:00,
2013-08-01 23:41:00,77.0,37.3,29.71,West,265,12.0,27.0,24,0.00,,,0.00,WUHU216DAVISVP2,2013-08-02 06:41:00,
2013-08-01 23:46:00,76.9,37.3,29.71,SW,229,15.0,23.0,24,0.00,,,0.00,WUHU216DAVISVP2,2013-08-02 06:46:00,
2013-08-01 23:51:00,76.8,37.2,29.71,West,260,15.0,23.0,24,0.00,,,0.00,WUHU216DAVISVP2,2013-08-02 06:51:00,
2013-08-01 23:56:00,77.0,37.3,29.71,WSW,240,10.0,21.0,24,0.00,,,0.00,WUHU216DAVISVP2,2013-08-02 06:56:00,